sat.trackr.live / text

‹ back to catalog

STARLINK-5274

NORAD 55395 · 2023-014E

PAYLOAD ACTIVE UNKNOWN

§ Identity

Operator
Country
US
Launch date
2023-01-31
Launch site
AFWTR
Launch vehicle
Mass (kg)
RCS (m²)

Purposes: comms

External: N2YO · Heavens-Above · Gunter

§ Orbital elements

Epoch: 2026-05-25T05:23:14.062848Z

Period
96.11 min
Inclination
69.9994°
Eccentricity
0.0003177
Mean motion
14.98332143 rev/d
Perigee alt
569.8 km
Apogee alt
574.3 km
Semi-major
6,950.2 km
B*
3.8307e-7
RAAN
231.3086°
Arg perigee
270.5428°
Mean anomaly
89.5367°
Rev number
18,352

§ Raw data

STARLINK-52741 55395U 23014E   26145.22446832 -.00000088  00000+0  38307-6 0  99992 55395  69.9994 231.3086 0003177 270.5428  89.5367 14.98332143183529

JSON: /api/v1/satellites/55395 · /tle

For live sub-satellite position, see the globe view (requires WebGL).

§ Visibility from observer

Set your observer location to see the next 7 days of passes ≥ 10°. The values pass through the URL so the page stays shareable.

No JS? Fill the form by hand. The geolocation button needs JavaScript.